Theta_e
355 354 354 353 352 352 351 350 349 349 350 351 351 351 352 352 355 363 369 364 354 351 353 352 353 354 353 354 353 353 354 354 354 354 354 354 354 354 353 352 351 349 347 347 347 347 346 347 344 341 342 343 345 346 347 348 348 348 350 351 351 351 352 352 352 353 352 350 349 350 350 350 350 345
356 356 356 354 353 353 352 352 352 352 351 351 351 352 352 353 354 355 361 365 357 351 354 354 353 353 353 354 354 353 354 354 353 352 352 352 352 352 352 351 350 349 348 347 346 346 346 346 344 341 342 344 344 346 348 349 350 351 352 353 352 352 353 354 353 354 354 352 350 350 351 351 352 350
355 356 356 356 355 355 354 354 354 354 353 352 352 354 353 353 355 352 354 360 357 352 353 354 352 353 354 354 354 353 353 351 351 350 349 349 349 349 349 350 349 349 348 348 347 347 348 346 343 342 344 346 348 349 351 353 354 355 355 355 353 353 354 354 354 354 353 353 351 351 352 352 352 352
355 355 356 357 356 356 356 356 356 356 355 354 353 354 353 352 354 354 354 356 355 353 354 353 352 354 355 354 354 353 350 348 349 349 348 348 348 348 348 348 349 348 347 347 347 347 347 345 344 344 346 349 351 353 354 356 356 356 356 355 354 354 354 355 354 354 353 353 353 352 352 353 352 352
355 356 357 358 357 358 359 358 357 356 355 355 354 353 353 353 353 354 354 354 354 354 354 353 353 355 355 354 354 353 349 346 348 349 347 348 349 349 349 348 347 346 345 344 344 345 345 345 345 346 348 352 354 355 356 356 356 356 356 355 355 354 354 355 355 354 354 354 354 354 353 354 353 352
357 357 357 357 357 357 358 356 356 356 355 355 355 354 354 353 352 352 354 355 355 354 353 353 354 355 355 354 354 352 347 347 350 350 348 347 348 348 348 348 347 345 344 344 345 346 346 347 347 348 350 354 354 355 355 354 355 356 356 355 355 355 354 355 354 354 355 355 355 355 355 354 354 353
358 357 356 356 356 355 356 356 356 357 357 356 355 354 354 354 352 352 353 354 355 355 354 354 355 356 355 355 353 348 344 347 349 349 349 348 348 348 348 347 347 346 345 346 347 348 348 349 349 349 352 354 355 355 355 353 354 355 356 356 355 355 355 355 355 354 354 355 355 355 355 355 355 355
358 357 356 357 358 358 357 358 357 357 357 356 354 354 353 353 354 353 351 351 353 354 354 355 356 355 355 354 349 343 342 345 346 347 349 350 348 349 349 349 348 347 347 348 349 349 349 350 351 351 353 354 354 355 355 354 353 354 355 356 356 356 356 355 355 355 355 356 356 356 356 356 356 355
358 358 358 358 359 359 358 358 358 357 356 355 354 354 353 354 355 354 353 352 353 354 355 357 356 355 354 351 345 342 343 345 345 345 348 349 348 349 350 349 350 350 350 350 350 351 351 351 352 352 353 355 355 355 355 354 354 353 353 354 355 355 356 356 356 356 355 356 356 356 356 356 356 356
357 357 357 357 356 357 356 356 357 357 356 355 353 353 354 353 354 354 353 353 354 355 356 356 355 354 351 347 343 342 346 348 348 348 349 348 348 350 351 351 351 352 352 352 352 352 352 352 353 353 354 355 355 355 354 353 353 353 352 352 354 354 354 355 355 355 355 355 356 356 356 356 356 356
356 356 356 356 356 356 356 355 355 355 355 354 352 353 353 353 353 354 353 354 355 356 355 354 354 351 347 346 346 347 350 351 351 351 351 350 350 352 353 352 352 353 353 352 353 352 352 353 353 354 355 355 354 354 352 351 351 352 353 353 353 352 352 353 353 354 354 355 355 356 356 356 356 356
355 356 357 357 356 355 355 354 352 351 351 351 350 349 350 350 352 353 353 354 354 354 353 351 350 349 348 349 352 353 354 354 353 353 353 354 354 353 354 353 353 354 353 353 353 352 352 353 353 354 354 352 350 349 350 351 352 353 353 353 352 351 352 353 353 354 354 354 354 355 355 355 356 356
355 356 356 356 355 353 354 353 353 351 350 349 349 348 348 349 351 353 353 352 351 350 349 347 348 350 352 354 356 357 356 355 354 354 354 355 355 354 354 353 353 354 354 354 353 352 353 353 352 352 350 345 344 347 351 352 351 351 352 351 351 351 352 352 352 353 353 353 353 353 353 354 354 355
356 355 354 354 353 353 353 353 353 352 350 350 350 349 350 352 353 353 351 350 349 348 347 348 350 353 354 357 358 357 356 354 354 354 354 354 354 354 354 354 354 354 354 354 353 353 353 351 349 346 340 338 343 350 353 350 347 350 351 348 342 340 339 341 342 345 347 348 349 350 351 351 351 352
357 354 353 354 354 354 353 352 353 352 351 351 350 350 352 353 353 352 351 351 350 350 351 353 354 355 355 357 358 355 354 354 353 353 354 353 354 354 354 354 354 353 353 353 351 351 351 347 343 336 333 339 347 352 352 346 345 350 350 341 330 322 322 329 336 339 341 343 345 348 350 351 351 352
357 353 352 353 353 352 353 352 353 352 351 350 351 353 355 355 354 353 353 353 353 354 355 356 356 356 357 357 356 354 354 353 353 353 353 353 354 354 353 353 352 351 351 350 350 351 349 344 338 331 332 342 349 351 351 347 345 348 347 339 328 317 316 329 339 341 341 343 345 349 352 353 353 354
355 351 350 351 352 353 353 352 351 350 350 350 351 355 357 357 356 355 355 355 355 355 356 356 357 357 356 355 354 353 354 353 353 353 352 352 352 352 350 349 349 349 350 349 349 350 346 340 335 330 332 343 349 350 352 350 345 346 344 335 324 317 321 334 342 342 344 346 348 351 353 354 355 355
353 350 350 350 351 352 351 350 349 349 349 350 353 355 356 356 356 355 355 354 354 354 354 355 355 355 353 353 353 353 352 351 350 350 350 350 349 346 345 345 346 349 348 345 345 345 340 336 335 334 335 340 347 350 351 349 347 346 339 326 321 326 333 339 342 342 342 343 345 350 351 352 352 350
351 350 350 350 351 350 349 349 349 348 350 351 352 353 353 353 353 354 353 352 352 353 352 351 351 351 350 350 350 349 348 346 345 344 345 345 342 341 342 343 345 348 346 342 339 337 336 337 337 337 337 340 348 350 347 346 348 344 333 322 326 335 338 339 338 337 335 335 337 340 343 344 343 340
351 350 350 350 350 350 350 350 350 350 351 351 351 352 351 350 352 352 350 349 349 350 350 349 348 349 349 348 347 345 344 343 341 340 340 341 341 342 344 343 344 344 341 337 335 333 336 337 334 332 336 343 347 344 339 341 343 335 326 325 332 335 334 332 332 330 329 330 330 332 335 336 336 335
353 352 351 351 351 351 351 350 350 350 350 349 350 350 349 349 351 349 346 346 348 349 349 348 348 348 347 344 342 340 338 337 337 336 336 339 341 341 341 340 340 340 336 332 332 334 336 333 328 328 333 341 345 338 329 329 330 325 325 331 333 331 327 325 325 325 326 328 327 327 329 331 332 332
351 350 350 350 350 349 349 349 349 348 347 346 345 344 346 347 346 344 343 345 346 348 348 347 345 343 339 336 334 333 332 332 332 332 331 333 334 333 332 333 334 335 332 328 330 335 333 328 324 325 327 335 342 335 322 319 322 324 328 329 328 327 324 321 321 322 322 323 322 321 321 322 324 325
349 346 345 346 347 348 348 347 346 343 340 339 338 339 341 341 338 339 343 343 342 341 341 340 337 334 331 329 329 329 328 328 328 328 326 327 328 327 327 328 330 332 329 324 326 333 329 323 321 322 324 331 336 328 316 317 322 326 327 325 322 322 320 318 318 317 316 316 316 315 315 315 318 321
340 337 335 336 339 341 340 338 337 333 330 330 331 333 334 333 334 339 339 335 333 332 330 327 326 325 324 325 325 325 325 324 324 323 323 324 324 325 326 327 328 329 325 320 322 327 324 319 319 319 320 327 329 321 314 318 323 326 326 322 318 316 315 315 315 313 312 312 311 312 312 313 317 321
331 329 329 329 329 329 329 331 332 329 326 327 328 328 329 331 335 337 333 328 327 326 323 321 320 320 321 322 322 322 322 321 321 321 321 321 323 324 325 325 326 326 321 316 318 321 318 316 317 316 316 320 321 319 317 319 322 325 324 319 314 313 313 313 313 312 312 311 311 311 311 312 316 321
329 326 326 325 323 321 323 329 332 331 328 327 328 330 333 334 334 332 328 326 325 323 321 320 320 320 321 321 321 321 320 320 320 320 319 321 323 323 322 322 323 322 317 314 315 315 314 314 313 315 317 318 318 319 319 320 322 323 320 315 311 312 313 312 313 313 312 312 312 311 310 311 315 320
326 324 322 321 321 320 322 326 330 330 328 328 332 335 335 333 330 327 325 324 323 321 320 319 320 320 321 320 320 320 319 319 320 320 318 319 321 321 319 319 319 317 314 313 313 313 313 312 311 314 317 317 317 318 318 319 322 320 316 312 310 312 313 313 313 314 313 313 313 312 311 312 314 318
321 321 321 322 324 325 325 326 327 327 327 330 332 332 330 327 326 325 324 323 321 320 319 319 319 319 319 319 319 319 319 319 319 319 318 318 319 319 318 317 317 315 313 312 313 313 313 312 312 313 315 315 315 316 316 319 320 316 311 309 309 310 312 313 314 315 314 314 313 313 313 313 314 316
315 317 320 324 327 327 326 326 326 326 327 328 328 326 325 325 324 323 322 321 320 319 318 316 316 317 317 318 318 318 318 318 318 318 317 317 317 317 316 315 315 314 312 311 311 312 313 312 311 312 313 312 311 312 313 317 319 313 308 310 311 310 311 313 313 314 314 313 313 313 313 313 314 314
319 322 325 327 327 326 326 326 326 326 326 326 325 324 323 323 322 320 320 319 318 318 316 315 315 316 317 317 317 317 317 316 316 317 316 316 315 315 315 314 313 312 310 309 308 310 311 311 311 312 313 312 310 309 311 315 316 311 307 310 312 311 311 312 313 314 314 313 312 312 312 312 313 313
325 326 326 326 326 326 326 326 325 324 324 323 322 322 321 320 319 318 318 317 317 316 315 315 316 316 317 317 316 316 316 315 315 315 315 314 313 313 312 312 310 308 307 306 306 306 307 308 308 308 310 310 308 307 310 313 313 309 308 310 312 311 311 311 313 314 313 312 311 311 311 311 312 312
327 325 324 324 325 326 325 324 323 322 321 321 320 319 319 319 318 317 316 315 315 315 315 316 316 316 316 316 315 314 314 314 314 314 313 313 312 310 310 309 307 306 305 304 304 304 304 305 305 305 306 307 306 307 310 312 310 308 308 310 311 310 310 311 312 313 312 311 311 310 310 310 311 312
325 324 323 323 323 323 322 322 321 321 320 319 319 318 318 317 316 316 314 314 314 315 315 316 316 315 315 315 314 313 313 313 312 312 311 310 309 308 307 306 305 305 305 304 303 303 303 304 304 304 304 305 305 307 310 310 308 307 308 310 310 309 309 311 312 311 310 310 310 310 309 310 311 311
323 323 323 323 322 322 322 321 320 320 319 318 318 317 317 316 316 315 314 314 314 315 315 315 315 314 313 313 313 312 311 311 310 310 309 308 307 307 306 305 305 304 304 303 303 303 303 303 303 303 303 304 304 306 308 308 307 307 308 309 308 308 309 310 310 309 309 310 309 309 309 310 310 310
322 322 322 322 321 321 321 320 320 319 319 318 317 317 316 315 315 314 314 314 314 315 315 315 314 313 313 312 311 310 309 309 308 308 307 307 306 305 304 304 305 304 303 302 303 303 303 303 303 302 303 303 303 305 306 306 306 307 307 307 307 308 309 309 309 308 309 309 308 308 309 309 309 309
322 322 321 321 321 320 320 320 319 319 319 318 317 317 316 315 315 315 314 314 314 314 314 314 313 312 311 311 310 309 308 307 307 306 305 305 304 303 303 303 303 303 302 302 302 303 303 302 302 302 303 303 303 304 304 304 305 306 306 306 307 308 308 308 308 308 308 308 307 308 308 309 309 308
322 322 321 321 321 320 320 319 319 318 318 317 317 316 316 315 314 314 314 314 314 314 313 312 311 311 310 309 308 307 306 306 305 304 303 303 302 302 302 302 302 301 301 301 302 302 302 302 302 302 302 302 303 303 303 303 304 304 305 306 307 307 306 307 307 307 307 306 306 307 307 308 308 308
322 323 322 321 321 320 319 319 318 318 317 316 315 315 314 313 313 312 312 312 312 312 311 310 309 309 308 307 307 306 305 304 304 303 302 302 301 301 301 301 301 301 300 300 301 302 302 301 301 301 302 302 302 302 302 302 303 304 305 305 305 305 306 306 306 306 305 305 306 306 307 307 308 309
322 322 322 321 321 320 319 318 317 316 315 314 313 313 312 312 311 311 311 311 310 310 309 309 308 307 306 306 305 304 304 303 302 302 301 301 301 301 301 301 301 300 300 300 300 301 301 301 300 301 301 302 302 302 302 302 303 303 304 304 304 305 305 305 305 304 305 305 305 306 307 308 308 308
320 320 319 319 318 317 316 315 314 314 313 312 312 312 311 311 311 310 310 309 309 308 308 307 306 306 305 304 303 303 302 302 301 301 300 300 300 300 300 300 300 299 299 300 300 300 300 299 299 300 301 301 301 301 302 302 303 303 303 303 303 304 304 304 304 304 304 304 305 306 307 308 308 307
316 315 315 314 314 314 313 313 312 312 311 311 311 311 310 310 310 309 309 308 307 307 306 305 304 304 303 303 302 302 301 301 300 299 299 299 298 299 299 299 299 299 299 300 300 299 299 299 299 300 300 301 301 302 302 302 302 302 302 303 303 303 303 303 302 303 304 305 306 306 307 307 306 305
314 313 313 312 312 312 311 311 311 311 310 310 310 310 310 309 309 308 307 307 306 305 305 304 303 303 302 302 301 301 300 300 299 298 298 298 297 297 297 298 298 298 299 299 299 298 298 299 299 299 300 300 301 301 302 302 302 302 303 303 303 303 302 302 302 303 304 305 305 305 305 305 304 303
313 313 312 312 311 311 311 311 310 310 310 309 309 309 309 308 307 307 306 305 305 304 303 303 302 302 301 301 300 300 299 299 298 297 297 296 296 296 297 297 297 298 298 298 298 298 298 298 299 299 299 299 300 300 301 301 302 302 303 302 302 302 301 301 302 303 304 303 303 303 303 303 303 303
312 312 311 311 310 310 310 310 309 309 309 309 308 308 307 307 306 306 305 304 304 303 302 302 301 301 300 300 299 299 298 297 297 296 296 295 295 295 296 296 296 297 297 297 297 298 298 298 298 298 299 299 299 300 301 301 302 302 302 302 301 301 300 301 302 303 302 302 302 302 301 301 301 302
311 310 310 310 309 309 309 308 308 308 307 307 307 307 306 306 305 305 304 303 303 302 302 301 300 300 299 298 298 297 297 296 296 295 295 294 294 294 295 296 296 297 297 297 297 298 298 298 298 298 298 299 299 300 301 301 301 301 301 301 300 300 300 301 302 301 301 301 301 301 300 300 301 301
Wind_Speed
4 3 3 4 4 3 2 2 3 3 4 4 5 6 4 2 1 1 2 4 2 5 8 7 8 14 14 15 16 14 13 13 13 13 13 13 13 13 13 13 14 15 16 15 15 16 17 19 21 20 19 19 20 21 22 23 24 24 22 20 20 20 19 18 17 18 17 15 13 13 15 17 18 16
6 5 5 4 3 3 3 3 4 4 4 5 5 5 6 6 4 2 2 3 3 5 9 10 11 14 15 15 15 14 15 15 15 15 14 14 14 13 13 13 14 15 17 16 15 15 16 18 19 20 22 22 22 22 23 23 23 22 21 19 18 18 17 16 17 18 19 16 14 12 14 16 18 18
8 7 6 5 4 4 5 5 5 5 5 5 6 6 7 8 9 7 5 2 4 8 11 13 13 14 14 15 15 15 15 16 16 16 15 15 14 14 14 14 15 16 16 15 13 14 15 17 17 20 24 24 22 22 21 21 20 19 18 17 16 15 15 15 17 18 18 16 14 13 14 16 17 18
8 8 6 5 5 5 6 6 7 8 8 8 8 8 9 9 10 9 8 6 8 12 13 13 13 13 13 15 15 16 17 16 15 15 16 15 14 14 14 14 15 15 14 13 13 13 15 16 18 22 25 23 21 20 20 20 19 16 15 14 13 14 14 15 16 16 16 15 14 13 14 15 17 18
8 8 8 7 6 6 7 8 9 10 9 9 10 9 9 10 10 9 9 9 11 13 13 13 13 13 14 15 15 17 19 17 15 15 17 17 15 14 14 14 15 16 16 16 15 14 15 17 21 24 23 21 20 20 20 19 18 16 14 13 13 13 14 15 15 15 14 13 13 13 13 14 16 17
8 9 9 9 8 8 8 9 10 9 8 9 10 9 8 9 9 8 8 9 10 12 13 13 12 12 14 15 16 17 18 16 15 16 16 16 16 15 15 15 17 18 18 17 15 16 18 21 23 23 21 19 19 18 18 19 20 19 17 14 13 13 13 14 14 13 13 12 12 12 12 13 14 16
9 10 10 9 9 8 9 10 9 8 8 9 9 8 7 8 9 8 8 8 9 11 13 12 12 13 14 15 16 17 16 15 15 17 16 16 16 16 16 17 18 19 18 16 17 19 21 23 22 20 18 18 18 16 16 19 21 21 20 18 15 14 14 14 14 13 13 13 12 12 12 13 13 15
10 11 10 9 9 9 9 9 9 9 9 9 9 8 8 9 9 8 8 8 9 10 11 12 13 13 13 15 16 16 15 14 15 16 16 16 17 17 17 18 19 19 17 17 18 21 23 23 20 18 17 17 16 14 15 19 21 21 20 19 18 16 15 14 14 13 13 13 12 12 12 13 14 15
10 12 12 11 11 11 11 11 11 10 10 10 10 10 10 10 10 9 9 9 10 10 11 12 12 12 13 15 16 15 15 16 16 16 15 16 17 18 18 18 19 19 18 18 20 23 24 21 19 17 16 15 16 15 17 19 20 20 20 18 18 17 16 16 15 14 14 13 13 12 12 13 14 15
12 12 13 13 12 11 11 11 12 12 12 11 11 12 11 11 11 11 11 10 9 9 9 10 11 13 14 16 16 15 15 17 16 16 16 17 17 18 19 20 21 20 18 18 21 23 23 20 19 17 15 14 16 18 20 20 20 19 19 18 18 17 17 17 17 16 16 16 15 14 14 14 14 14
12 11 13 13 12 11 11 11 11 11 11 11 11 12 12 12 12 12 11 10 8 8 8 9 11 13 14 15 15 15 15 15 14 14 17 19 18 18 19 21 21 19 18 19 22 22 21 19 18 16 15 15 16 18 20 20 19 18 18 19 19 19 19 18 18 17 17 17 16 15 14 14 14 14
12 12 13 12 11 10 10 9 9 9 10 10 11 11 12 12 11 11 10 8 7 8 9 10 11 11 13 14 15 15 15 14 14 14 14 16 18 19 19 19 18 18 18 21 22 22 21 19 18 16 16 16 18 18 18 18 18 18 19 19 19 19 18 17 17 16 16 15 15 15 14 14 14 14
12 13 13 11 9 9 8 8 8 10 11 11 11 11 10 10 10 10 9 8 8 9 10 11 11 11 13 14 14 15 14 13 13 13 13 14 17 18 18 17 15 15 17 20 21 21 19 17 17 18 17 18 19 18 17 18 20 20 19 19 18 18 17 17 16 16 15 15 15 15 15 15 15 15
11 12 11 9 8 10 10 9 9 10 10 9 10 10 9 8 9 10 10 9 8 8 9 10 10 10 12 13 12 13 13 12 12 13 14 15 16 15 16 17 15 15 16 18 19 18 15 15 17 18 18 18 17 16 18 21 22 20 18 19 19 19 18 18 18 17 17 16 16 16 16 16 16 16
11 10 9 8 9 10 10 9 9 8 8 8 9 9 9 7 7 8 9 9 8 8 9 9 10 10 11 11 10 10 11 12 13 14 13 14 14 13 12 13 14 16 16 16 17 14 12 14 17 17 18 17 15 15 18 21 21 19 18 19 21 22 21 20 20 19 18 16 16 16 15 16 16 15
13 11 9 9 9 9 8 9 9 8 8 9 9 8 7 6 6 7 8 8 8 8 9 10 10 9 9 9 8 9 10 11 12 13 12 12 12 11 10 11 13 15 14 14 14 11 12 15 17 17 17 16 14 13 16 21 21 18 17 19 23 24 22 21 21 19 18 17 16 16 16 16 15 14
13 12 11 10 9 8 9 9 8 8 8 8 7 6 5 5 5 5 6 7 7 8 9 10 9 7 7 7 7 8 8 9 10 10 10 10 9 10 10 11 12 13 12 13 12 9 12 18 19 18 16 14 12 12 15 22 22 18 17 21 24 24 21 20 20 20 19 19 18 17 17 17 16 15
13 12 11 10 9 9 9 9 9 8 8 7 7 5 4 4 4 3 3 4 4 4 5 5 5 4 5 7 7 7 7 7 8 8 8 8 8 9 10 9 8 10 11 13 12 9 14 19 18 17 16 13 10 11 15 21 21 19 21 24 23 21 20 19 19 20 21 21 20 19 18 17 17 17
13 12 11 11 10 10 9 9 9 9 8 8 7 6 4 4 4 3 3 3 3 3 4 4 4 4 4 5 5 5 5 5 6 6 5 5 7 8 7 5 6 9 11 15 14 11 15 18 17 17 16 11 10 12 16 19 19 20 23 23 20 19 19 19 20 21 22 22 21 20 19 18 19 18
13 12 11 11 10 9 8 8 8 8 8 8 8 6 5 4 4 3 2 3 4 4 3 2 2 1 2 1 2 3 4 5 5 5 3 4 7 8 7 7 9 10 12 18 17 13 14 18 19 17 14 10 11 14 16 16 17 20 21 19 17 18 20 21 22 22 23 23 23 22 21 20 20 20
12 11 10 9 8 7 6 6 7 7 7 8 8 7 5 5 4 2 0 0 1 1 2 3 3 4 3 2 2 3 4 6 7 6 5 7 9 9 9 9 9 10 15 20 17 12 12 17 20 18 13 9 10 14 18 17 17 19 17 16 16 18 21 22 22 23 23 23 24 24 24 22 22 22
10 9 9 8 7 6 5 5 5 6 6 7 6 6 4 3 2 1 3 4 4 5 5 6 6 6 5 5 5 6 8 9 9 10 11 10 10 11 10 9 7 8 16 22 17 10 11 17 19 18 14 8 6 13 19 18 18 18 17 17 18 19 21 22 22 23 23 23 24 25 25 25 24 24
11 10 9 8 7 6 5 5 5 5 5 5 5 4 3 3 2 3 5 7 8 8 9 8 8 7 7 8 8 9 10 12 12 13 13 11 11 12 12 11 8 6 13 20 17 9 11 17 18 17 14 6 4 14 19 16 17 19 17 19 21 21 22 23 22 23 24 24 25 25 25 26 25 24
9 8 8 7 6 6 5 4 4 3 2 2 2 2 3 4 5 6 8 9 9 9 10 10 9 8 8 8 9 10 11 12 13 14 13 12 12 11 11 13 12 9 12 19 17 10 11 17 18 17 13 5 6 15 19 15 16 18 18 21 24 23 24 25 23 24 24 24 25 25 25 25 24 24
3 5 6 4 3 4 4 3 3 3 3 3 3 3 3 5 8 10 11 11 9 9 10 9 9 9 8 9 10 11 12 13 13 13 13 13 12 11 11 13 14 13 15 18 18 13 13 18 19 18 16 9 7 14 17 15 17 18 18 22 24 23 25 26 25 25 26 25 25 25 25 24 23 24
3 4 3 2 3 4 4 3 3 3 3 3 3 3 5 8 11 12 11 10 9 9 9 9 9 10 11 11 12 13 13 13 12 13 13 12 12 13 13 14 14 15 16 18 18 17 16 18 19 19 18 14 12 14 15 15 17 18 19 22 22 21 24 25 25 27 28 28 27 27 26 24 22 22
4 5 4 2 2 3 3 1 2 2 3 4 6 8 10 12 12 10 9 9 9 10 10 11 11 12 12 13 13 13 12 11 11 12 13 12 12 12 13 14 14 15 16 17 17 18 17 18 18 18 18 17 16 15 15 16 16 18 22 23 20 19 23 25 25 27 28 28 29 28 28 26 24 23
4 3 2 2 2 1 1 1 3 4 6 9 12 12 12 12 10 9 10 10 11 12 13 13 13 12 12 12 12 12 11 10 9 11 11 11 10 10 10 11 12 14 16 16 16 17 17 17 17 16 16 17 17 15 15 16 16 19 23 24 21 20 23 25 25 26 27 28 28 28 28 27 25 24
4 3 1 1 1 2 3 5 7 10 12 14 14 13 11 10 10 10 11 11 11 12 13 12 12 11 11 11 11 10 9 8 8 10 10 10 10 9 8 8 10 13 16 16 16 15 15 15 16 15 14 15 17 16 16 16 15 17 22 23 21 19 22 26 26 25 26 27 26 26 26 25 24 23
2 1 1 2 3 5 9 11 13 15 16 14 13 12 10 10 11 11 11 11 12 12 12 11 11 11 10 10 9 8 8 10 12 12 11 11 11 11 10 10 12 14 16 16 15 15 15 15 15 14 14 15 16 17 16 14 13 16 21 21 19 18 22 25 26 24 25 27 26 25 24 23 22 22
3 6 8 8 9 12 15 16 17 17 15 13 12 12 11 11 12 12 11 11 11 11 10 9 10 10 9 9 9 10 11 13 14 13 12 13 14 14 14 15 17 18 18 17 16 16 16 16 16 16 15 15 16 16 15 11 12 17 20 18 17 19 22 25 25 24 25 27 26 25 25 24 22 21
8 13 15 15 15 17 18 18 17 15 14 13 13 12 12 12 12 11 10 10 10 10 9 9 9 9 9 9 10 10 11 13 13 12 13 13 15 15 16 18 19 20 21 21 21 20 19 18 19 18 15 14 15 15 13 11 12 17 19 17 16 19 22 24 24 23 24 26 26 26 26 25 22 21
11 16 17 17 17 17 17 16 14 13 13 13 12 12 11 11 11 10 10 11 11 10 9 9 9 9 9 9 9 10 11 12 12 12 13 14 15 16 17 18 19 19 22 23 24 24 23 22 22 21 18 15 13 11 10 12 14 17 18 18 19 22 23 23 23 24 25 26 26 26 26 24 21 22
13 15 15 14 14 14 14 14 13 12 12 11 11 11 10 10 10 10 10 10 9 8 7 8 8 7 8 8 9 9 10 11 11 12 13 14 15 17 18 18 18 19 21 22 24 25 25 25 25 24 21 19 16 10 6 10 15 17 18 18 20 24 24 22 23 24 24 23 25 26 26 24 22 23
12 13 13 13 12 11 11 11 11 10 9 9 9 9 9 8 8 7 7 6 5 4 4 5 6 6 7 7 8 8 9 10 11 12 13 14 15 17 17 17 16 17 20 21 21 22 23 24 26 27 25 23 20 13 8 10 13 16 19 20 22 24 23 23 25 24 21 21 23 25 24 24 24 26
9 10 11 11 10 9 9 9 9 8 7 7 7 6 6 5 5 5 5 4 2 2 3 4 5 5 6 6 7 8 9 10 11 12 14 15 16 17 17 16 15 16 18 18 18 18 19 20 22 22 21 19 15 10 11 12 11 13 19 23 24 23 23 25 25 23 20 22 23 23 22 23 26 28
5 6 7 8 8 8 8 8 8 7 7 6 5 4 4 4 4 4 3 2 2 3 3 3 4 5 5 6 7 8 9 10 11 13 14 16 16 17 17 16 16 17 18 18 16 15 16 18 19 18 16 13 7 6 12 16 14 13 18 22 23 23 24 25 23 21 22 24 24 23 23 25 27 28
4 5 6 6 6 7 8 9 8 8 7 6 6 5 5 5 5 4 3 2 3 3 3 4 4 5 5 6 7 8 9 11 12 13 15 16 16 16 16 16 16 18 19 18 16 15 15 16 17 18 16 11 6 6 13 19 21 20 19 18 21 23 23 22 22 22 24 25 25 25 25 25 26 26
5 6 6 6 7 8 9 9 9 8 8 7 6 6 5 4 4 3 2 2 3 3 3 3 4 5 5 6 8 9 10 12 13 13 14 15 15 15 15 16 17 18 19 18 16 16 15 16 17 18 17 15 13 14 18 22 25 24 20 17 18 20 21 22 23 24 25 26 27 28 27 25 24 23
8 8 8 9 9 10 10 9 8 8 7 6 5 4 3 2 2 2 2 2 2 2 3 3 4 5 6 7 9 10 11 12 13 13 13 15 16 16 16 16 17 18 18 17 16 16 17 17 18 18 18 18 19 20 21 21 21 21 20 18 16 16 18 21 24 25 26 27 28 28 26 25 24 23
10 11 11 10 10 10 9 8 7 6 5 4 3 2 2 1 1 1 2 2 2 2 3 4 4 6 7 8 10 11 11 12 14 15 16 17 18 18 17 17 17 17 16 15 16 17 18 18 18 17 17 18 19 17 16 15 16 18 20 19 17 16 17 20 23 24 25 25 26 25 23 23 25 25
9 10 10 9 8 7 6 5 4 3 3 2 1 1 1 1 2 2 2 2 2 2 3 4 5 6 8 9 10 12 12 13 15 17 18 18 18 18 17 16 16 16 15 15 16 18 18 17 17 17 18 18 18 16 14 13 16 18 18 18 17 17 18 20 21 20 18 19 22 22 23 24 23 21
7 8 7 6 5 5 4 3 2 1 1 1 0 1 1 1 2 2 2 2 2 3 4 5 6 7 8 9 11 12 13 14 15 18 19 19 18 17 17 17 16 16 16 17 17 18 17 16 17 18 18 18 17 16 15 15 16 16 16 17 17 18 21 23 21 16 14 16 18 19 21 22 20 17
6 6 5 4 3 3 2 2 1 1 1 1 0 1 1 1 1 1 1 1 2 3 4 6 7 8 9 10 12 13 13 14 16 18 19 18 17 16 16 17 16 16 17 17 18 18 17 16 16 17 17 18 18 17 16 15 15 15 16 16 18 20 23 23 20 17 17 18 19 20 22 22 20 20
4 3 3 2 2 1 1 1 1 2 2 2 1 1 1 1 1 0 0 1 2 4 5 7 8 9 9 10 12 13 13 14 17 18 18 16 15 15 15 15 16 16 17 17 17 17 16 15 16 16 16 17 17 16 14 14 15 16 16 17 19 21 22 20 19 20 21 21 22 24 25 24 23 23
Wind_Direction
295 308 314 323 329 324 325 334 334 338 337 335 333 331 335 338 329 352 330 321 311 333 347 350 344 349 352 351 356 1 2 0 355 351 346 341 337 335 339 345 349 354 358 357 358 3 2 355 353 358 1 359 355 352 348 344 341 339 337 336 337 339 340 342 344 343 341 335 332 337 343 344 344 340
281 290 298 307 314 314 313 320 324 331 333 331 332 329 321 310 291 252 252 288 291 316 332 335 337 343 348 354 1 6 8 7 4 360 353 347 343 339 341 346 349 351 351 350 353 356 353 348 350 357 358 355 349 344 340 338 337 337 336 335 334 336 340 344 343 339 336 334 331 332 337 341 343 342
278 282 289 296 299 296 297 306 309 314 321 321 324 325 320 317 302 271 245 250 284 300 315 326 336 342 347 356 2 1 3 4 2 1 356 349 346 344 345 348 350 352 351 350 351 349 344 345 349 353 354 352 349 346 345 344 345 345 344 342 340 341 346 346 342 338 339 341 341 337 336 339 342 343
279 280 282 291 298 292 292 302 306 304 304 299 299 303 309 320 314 282 248 236 272 292 305 318 333 344 347 352 357 354 353 355 359 5 6 1 360 359 1 3 4 5 3 1 356 348 344 345 347 349 351 352 353 355 356 354 353 353 351 351 349 348 349 345 342 343 348 351 351 346 341 341 343 344
277 278 278 283 290 289 289 298 304 303 300 295 294 297 302 317 323 296 258 246 270 293 308 319 331 342 343 344 349 348 348 352 358 7 10 12 16 18 17 15 11 7 4 1 356 349 347 348 349 350 351 355 1 3 4 4 4 2 359 357 353 350 346 342 342 346 352 354 354 351 348 346 347 349
276 281 279 275 278 281 281 287 297 302 303 301 300 297 294 305 317 310 280 260 264 287 307 319 328 336 337 337 341 345 347 351 357 1 4 6 8 8 4 2 359 356 358 359 357 355 354 353 353 352 354 1 7 8 12 16 16 13 9 2 354 349 345 343 343 345 349 350 351 350 349 349 349 350
281 283 280 277 278 276 275 280 291 301 306 308 306 298 290 295 304 307 295 275 267 282 301 314 322 327 330 331 335 342 345 348 351 354 355 355 355 354 351 349 349 351 355 357 356 356 355 354 354 354 357 6 9 10 17 20 19 18 16 11 4 356 351 348 346 344 343 343 345 344 343 342 342 344
283 278 274 278 283 283 281 284 290 297 300 303 304 298 294 294 292 292 291 283 275 278 288 301 312 318 322 325 330 337 340 342 345 347 348 348 349 349 347 345 347 350 353 353 353 354 354 354 354 355 359 4 7 12 17 16 15 15 15 14 13 8 3 357 351 343 338 336 337 337 336 334 333 334
274 272 270 274 281 286 287 289 292 294 292 294 297 296 296 295 288 286 289 287 281 277 281 293 305 311 314 318 324 332 335 336 338 340 340 339 341 342 339 339 344 349 349 348 349 351 352 354 353 355 358 0 6 12 11 8 7 7 6 7 8 7 6 3 358 352 347 343 340 336 332 329 328 328
260 266 271 273 278 280 282 286 292 293 290 291 292 290 292 295 289 285 286 284 279 276 280 288 297 304 310 315 320 327 332 334 337 340 334 328 334 338 335 334 340 346 347 346 348 350 351 353 355 358 0 359 1 4 3 1 1 0 359 358 357 357 357 357 357 357 356 355 351 346 340 335 331 330
257 263 270 273 275 277 280 286 293 294 289 287 286 281 283 289 291 288 285 283 278 274 279 285 292 300 308 313 318 323 328 332 339 346 338 327 328 333 333 334 339 343 344 342 345 349 351 354 1 5 4 359 357 355 355 356 359 360 359 356 353 352 352 352 353 353 354 355 355 353 350 346 342 338
263 267 272 275 275 274 277 281 284 284 282 285 290 288 284 285 288 287 282 279 276 276 283 287 292 300 307 313 319 323 329 335 337 343 340 327 325 328 330 333 338 342 342 340 343 348 350 355 2 4 1 359 359 358 358 1 4 4 0 358 358 359 359 360 358 357 357 357 356 355 353 350 348 346
267 270 272 275 267 256 261 274 280 278 280 288 296 299 295 284 275 268 262 264 273 280 284 288 295 304 307 314 323 325 331 338 334 335 333 323 324 326 325 329 338 343 341 339 342 348 352 355 358 357 358 0 2 7 16 18 12 7 7 9 11 11 9 8 5 3 1 359 358 355 351 348 345 346
269 271 269 266 248 242 256 272 276 275 280 289 298 306 306 286 264 252 251 258 270 276 280 286 294 298 300 312 324 324 327 331 329 330 330 325 326 329 326 327 337 345 343 340 341 348 356 357 355 356 359 3 10 23 29 22 14 14 20 22 20 17 15 13 11 10 7 5 4 360 354 350 346 345
272 268 256 246 239 246 258 261 261 268 281 292 300 308 308 287 263 256 261 268 271 272 276 282 286 290 297 307 317 319 321 325 328 329 329 326 328 332 331 327 334 345 346 341 342 353 3 359 356 359 3 8 21 36 31 20 17 21 23 20 16 15 16 18 18 17 16 14 12 9 4 359 356 356
266 254 236 232 236 246 250 246 250 265 280 289 295 301 301 286 267 263 266 267 264 263 266 272 280 288 295 302 311 321 323 324 328 327 327 327 326 330 334 326 332 346 347 342 347 2 9 1 357 2 6 11 27 38 28 18 17 17 14 11 9 9 14 21 23 22 21 20 18 16 14 12 13 15
255 239 228 230 232 233 236 240 252 265 273 278 281 285 288 282 273 266 265 264 265 268 269 272 278 283 292 305 317 327 328 328 330 327 326 327 322 328 335 331 340 355 358 356 359 4 5 2 358 360 5 12 28 37 25 15 11 9 7 6 5 8 14 20 20 21 22 22 21 21 20 22 26 28
242 232 231 233 228 229 239 251 261 270 273 271 270 271 272 273 272 266 263 267 272 278 280 286 293 298 311 324 330 335 339 339 335 330 330 329 324 327 328 328 356 18 16 11 9 360 1 3 359 359 4 13 33 38 23 14 9 4 4 5 6 14 21 23 22 24 26 24 23 23 25 28 30 30
229 227 228 231 232 237 247 257 264 271 275 275 273 271 268 267 266 260 263 272 276 282 300 314 319 325 334 341 350 355 350 344 340 336 335 330 325 327 324 331 21 32 17 12 11 1 2 6 3 1 5 19 42 38 23 16 7 359 1 4 11 22 27 27 27 28 27 26 24 24 24 25 25 24
222 223 224 228 235 242 247 254 264 270 274 279 280 278 273 261 253 255 277 295 295 294 302 308 317 35 58 47 37 9 334 329 329 317 314 330 339 351 1 5 20 27 14 12 14 8 3 8 8 5 8 28 43 32 23 16 2 356 2 9 17 26 27 25 25 24 23 23 21 19 18 17 15 14
218 218 219 223 229 237 246 257 269 273 276 281 280 277 271 251 234 222 114 24 285 229 168 152 138 125 119 102 52 18 357 353 345 341 2 11 12 26 28 7 9 26 20 14 18 20 12 9 8 7 13 37 42 22 16 11 358 359 11 19 23 27 24 20 19 18 17 16 15 14 13 10 8 7
198 197 200 207 212 221 237 252 267 275 276 277 276 273 262 237 209 139 119 123 128 137 138 130 123 117 99 73 59 49 38 29 24 32 40 37 33 42 38 14 7 26 22 15 17 29 21 13 13 12 12 29 31 4 5 8 5 9 20 21 20 21 17 15 15 13 13 12 11 11 10 9 6 6
186 188 189 193 196 202 226 245 256 267 271 271 274 266 232 192 142 118 123 125 124 121 116 110 104 94 78 66 61 55 46 40 38 42 45 39 35 42 42 34 32 31 19 14 16 28 24 17 21 22 14 6 334 348 1 14 13 13 20 19 16 14 11 9 10 10 10 10 10 10 11 11 11 10
173 171 168 171 177 189 210 227 229 230 232 224 202 179 171 150 130 124 122 120 118 111 102 94 85 75 65 59 56 51 45 42 41 42 42 39 38 43 48 52 58 57 27 15 15 24 24 18 21 25 22 10 317 340 358 15 17 15 18 15 12 9 7 7 7 8 8 9 9 11 12 15 19 18
124 131 142 135 121 144 164 168 159 146 136 135 132 133 145 139 131 128 122 115 109 100 89 81 72 64 57 51 49 45 42 43 44 43 45 45 46 49 53 58 64 59 36 21 16 18 21 19 17 16 18 16 344 342 353 6 15 17 16 12 11 9 7 8 8 8 9 8 9 11 13 17 22 23
50 96 115 65 51 86 114 135 141 122 102 98 100 110 130 134 130 125 118 109 98 86 75 64 56 51 46 44 42 40 41 46 50 49 51 54 59 63 64 64 65 56 38 27 23 23 25 24 19 14 11 6 353 350 354 358 5 10 9 10 14 14 11 10 11 10 10 10 10 11 13 16 21 23
46 72 77 44 52 73 81 115 135 102 78 96 110 115 121 124 123 117 105 93 84 75 66 60 56 49 44 41 40 40 41 47 54 56 57 60 64 65 64 66 65 54 38 31 30 29 28 26 22 18 13 3 355 354 354 352 356 2 1 2 10 16 15 14 14 12 10 10 10 10 11 14 17 17
35 51 71 96 103 97 103 115 106 94 100 115 120 119 117 116 111 100 88 80 74 68 63 60 56 49 44 42 44 46 45 48 60 64 64 66 65 58 55 58 55 43 32 29 29 28 27 24 22 20 15 7 1 354 348 346 353 2 0 357 360 9 12 12 13 12 9 8 8 8 8 9 10 9
17 12 33 110 120 138 136 126 116 112 115 120 119 115 110 102 88 79 74 68 62 60 58 56 54 52 52 53 53 53 49 48 56 59 59 61 60 49 40 40 40 34 28 25 24 24 24 21 17 15 11 6 1 355 349 345 350 359 1 358 356 0 5 7 9 8 5 5 4 4 5 4 2 2
14 29 102 135 142 141 136 132 126 121 119 119 113 104 96 85 73 65 60 56 55 55 52 52 56 57 58 59 58 53 47 46 47 47 46 47 45 36 23 18 23 25 24 23 22 21 20 17 15 12 5 357 355 355 353 348 347 353 358 0 358 354 357 1 3 3 1 359 358 358 359 359 359 358
115 121 121 124 132 137 135 130 124 120 115 109 99 89 79 71 63 57 53 51 50 49 51 58 63 59 54 57 57 51 48 49 47 42 37 36 34 26 17 14 17 17 17 19 20 18 15 12 8 7 1 350 347 351 352 349 347 348 353 1 0 351 350 354 357 359 358 353 350 351 352 353 356 355
126 128 124 121 124 127 126 121 116 111 103 95 88 80 73 69 62 55 50 47 49 55 62 64 57 47 49 58 58 52 49 49 44 33 25 25 23 18 16 18 18 13 9 10 10 10 10 7 3 3 2 352 344 344 344 343 345 346 349 356 356 348 347 351 352 353 353 349 346 346 347 349 352 351
135 136 130 125 124 123 120 116 112 106 100 95 89 82 76 70 62 55 50 51 60 67 63 52 46 49 57 60 56 51 48 45 37 25 20 20 18 16 19 22 19 12 6 4 3 2 2 1 358 359 1 359 356 352 344 340 344 348 349 352 350 345 347 351 351 349 348 346 343 341 341 344 347 346
135 138 132 127 126 124 121 118 114 110 106 101 95 90 84 75 68 62 57 62 74 72 53 46 53 61 62 58 53 50 46 40 32 24 22 21 19 19 20 19 15 9 4 0 359 358 357 355 353 353 356 359 4 12 6 345 343 346 349 350 345 341 343 349 349 345 345 345 342 338 336 337 340 341
128 131 129 127 124 122 121 120 120 119 115 108 104 99 92 82 71 59 53 58 68 61 47 54 63 64 60 59 55 50 43 36 30 24 21 20 18 19 19 15 8 3 359 357 356 356 355 354 353 354 354 354 357 3 11 1 350 345 343 342 340 339 340 342 342 341 341 343 341 336 331 330 333 335
126 127 131 132 129 128 126 127 129 131 125 118 115 107 95 87 71 52 48 47 45 48 59 68 70 68 65 61 53 44 38 32 26 22 19 17 15 14 13 10 3 357 354 353 353 354 354 356 358 357 352 348 349 347 344 351 357 347 336 334 336 339 338 337 339 341 342 341 340 335 330 326 327 331
136 134 143 146 145 142 141 140 141 139 134 131 129 119 108 105 97 87 86 76 68 81 86 80 76 75 67 54 44 38 32 26 22 19 16 14 11 9 6 3 358 352 350 350 352 353 352 354 358 358 350 343 340 322 323 332 340 344 340 336 334 335 336 336 338 342 341 338 337 335 329 323 322 328
140 141 150 155 159 157 153 151 149 145 140 138 134 128 124 120 116 115 112 91 81 91 91 79 74 67 53 40 32 27 24 21 17 14 12 10 7 4 0 355 350 347 347 347 348 349 350 351 353 353 348 340 328 315 319 322 325 333 343 341 332 331 336 340 340 339 337 335 333 331 328 324 324 330
125 132 137 140 146 151 150 146 143 141 138 134 131 131 131 127 121 113 93 78 87 92 82 72 66 52 38 31 25 20 18 16 14 11 8 5 1 357 353 348 344 342 342 341 341 343 345 345 344 343 338 327 315 311 311 310 313 322 333 339 336 337 340 342 339 335 333 332 331 329 330 331 332 336
110 115 119 123 130 137 138 135 133 132 130 130 132 133 133 126 110 91 78 86 94 87 73 67 56 42 34 29 23 18 15 14 13 9 2 358 356 352 347 342 338 337 336 334 335 336 336 336 335 332 325 319 316 315 312 308 308 317 326 335 343 345 341 339 337 332 329 330 332 330 331 335 337 338
109 110 111 116 122 124 124 123 123 123 122 124 130 134 135 125 112 111 113 107 93 72 65 59 45 33 29 24 18 15 12 8 6 2 357 353 349 345 340 335 332 331 329 325 325 327 328 330 332 329 325 324 324 321 317 313 311 315 322 330 338 340 337 336 336 331 329 333 337 335 334 337 337 336
112 111 110 112 114 113 114 115 116 117 118 123 133 159 171 162 150 144 137 120 95 70 54 44 33 23 18 14 11 8 5 2 359 356 353 348 342 337 334 331 327 325 322 319 318 321 325 330 336 335 333 333 331 323 315 310 309 312 319 325 330 333 334 335 337 338 339 343 345 341 339 339 337 335
117 115 112 110 106 104 105 104 99 94 100 118 164 205 198 175 158 148 136 110 82 57 37 28 19 9 6 5 3 2 0 358 355 351 347 343 338 333 330 329 325 323 321 318 318 322 329 335 338 336 333 332 329 319 309 307 309 313 319 324 328 331 332 334 338 345 347 345 342 340 338 338 334 329
118 114 111 108 104 98 91 81 68 54 37 19 323 267 255 214 169 145 122 79 44 27 17 10 4 1 359 357 357 357 357 354 350 346 341 337 333 330 328 327 326 325 324 323 323 327 331 334 334 333 331 329 325 317 310 313 318 319 320 324 327 328 329 331 337 342 341 339 338 338 339 340 337 330
119 114 112 109 97 79 62 41 23 10 1 351 331 311 301 289 262 237 302 355 2 2 1 359 358 357 357 356 356 357 356 350 344 341 337 334 332 330 328 328 326 325 325 325 324 324 326 329 331 331 329 325 322 318 316 318 320 318 319 323 325 325 326 330 336 337 334 334 336 339 341 342 341 338